Regional Weather Roundup
Issued by NWS

Home | Current Version | Previous Version | Graphics & Text | Print | Product List | Glossary On
Versions: 1 2 3 4 5 6 7 8 9 10 11 12 13 14 15 16 17 18 19 20 21 22 23 24 25 26 27 28 29 30 31 32 33 34 35 36 37 38 39 40 41 42 43 44 45 46 47 48 49 50
001
ASUS43 KMPX 081501
RWRMN
WEATHER ROUNDUP FOR MINNESOTA
NATIONAL WEATHER SERVICE TWIN CITIES/CHANHASSEN MN
900 AM CST MON FEB 08 2016


NOTE: "FAIR" INDICATES FEW OR NO CLOUDS BELOW 12,000 FEET WITH NO
SIGNIFICANT WEATHER AND/OR OBSTRUCTIONS TO VISIBILITY. N/A MEANS
CURRENT SKY AND/OR WEATHER CONDITIONS ARE NOT AVAILABLE.

MNZ060>063-068>070-081600-
   Twin Cities Metro

CITY           SKY/WX    TMP DP  RH WIND       PRES   REMARKS
TWIN CITIES    CLOUDY    11   3  70 NW22G28   29.92R WCI  -8
ST PAUL        LGT SNOW  12   4  70 NW21      29.92R WCI  -7
CRYSTAL        CLOUDY    11   2  67 NW17G26   29.92R WCI  -6
BLAINE         CLOUDY    12   3  67 NW15G30   29.91R WCI  -4
LAKEVILLE      CLOUDY    10   3  72 NW18G26   29.89R WCI  -8
EDEN PRAIRIE   CLOUDY    12   3  67 NW22G29   29.91R WCI  -7
SOUTH ST PAUL  CLOUDY    13   4  68 NW17G23   29.90R WCI  -4
LAKE ELMO      CLOUDY    12   5  73 N16G25    29.90R HAZE    WCI  -4
$$
MNZ001>005-007-008-013>017-022>024-027-028-081600-
   Northwest Minnesota

CITY           SKY/WX    TMP DP  RH WIND       PRES   REMARKS
BEMIDJI        LGT SNOW   5   0  78 NW15      29.99R WCI -13
HALLOCK        CLOUDY    10   7  85 N21G29    30.17R HAZE    WCI  -9
ROSEAU         LGT SNOW   9   1  72 N18G26    30.09R WCI -10
WARROAD        CLOUDY     5  -2  72 NW18G28   30.07R WCI -15
CROOKSTON      LGT SNOW  10   9  92 N23G29    30.16S WCI -10
FOSSTON        LGT SNOW   7   1  78 NW22G30   30.08R VSB 1   WCI -14
DETROIT LAKES  LGT SNOW  10   5  79 N28G35    30.06R WCI -11
MOORHEAD       MIX PCPN  12   9  85 N24G33    30.16R WCI  -8
PARK RAPIDS    FLURRIES   8   0  69 NW17G26   29.97S WCI -10
MAHNOMEN       CLOUDY     8   4  83 N22G28    30.07R WCI -13
$$
MNZ006-009>011-018-025>026-081600-
   North Central Minnesota

CITY           SKY/WX    TMP DP  RH WIND       PRES   REMARKS
BAUDETTE       LGT SNOW   3  -4  72 NW17G28   30.01R WCI -17
FLAG ISLAND    CLOUDY     1  -2  85 NW20      30.05R WCI -20
INTL FALLS     LGT SNOW   3  -2  79 NW16      29.95R VSB 3/4 WCI -16
WASKISH        CLOUDY     5   0  78 NW9G16    30.01R WCI  -9
LONGVILLE      LGT SNOW   3  -2  78 NW12G23   29.95R WCI -13
GRAND RAPIDS   CLOUDY     3  -2  78 NW22      29.91R WCI -19
ORR            CLOUDY     3  -2  78 NW12      29.88R WCI -13
COOK           LGT SNOW   7   1  78 NW8G21    29.89R WCI  -6
WALKER         FLURRIES   4  -2  76 NW14      29.96F WCI -13
$$
MNZ012-019>021-037-081600-
   Northeast Minnesota

CITY           SKY/WX    TMP DP  RH WIND       PRES   REMARKS
DULUTH         LGT SNOW   8   2  76 N15G28    29.81R VSB 3/4 WCI  -9
ELY            LGT SNOW   7   3  85 NW9G18    29.82S WCI  -7
HIBBING        MIX PCPN   4  -1  80 NW18      29.87R WCI -16
EVELETH        PTSUNNY    7   1  78 NW13G18   29.86S WCI  -9
DULUTH HARBOR  FLURRIES  12   7  79 NW17G24   29.88R WCI  -5
TWO HARBORS    LGT SNOW  14   7  73 NW7G17    29.78R WCI   4
SILVER BAY     LGT SNOW  12   7  79 NW7       29.77R WCI   2
GRAND MARAIS     N/A     11   1  64 CALM      29.81R
G MARAIS ARPRT LGT SNOW   3  -4  72 NW10G20   29.68R WCI -12
$$
MNZ029>031-032-039>041-046>048-054>057-064-081600-
   West Central Minnesota

CITY           SKY/WX    TMP DP  RH WIND       PRES   REMARKS
FERGUS FALLS   CLOUDY    10   7  85 N30G37    30.11R FOG     WCI -12
WHEATON        LGT SNOW  16  10  79 NW28G38   30.15R WCI  -4
MORRIS         SNOW      12   9  85 N33G45    30.05R VSB 1/2 WCI -10
ALEXANDRIA     LGT SNOW   9   2  73 NW18G36   30.00R WCI -10
ELBOW LAKE     LGT SNOW  10   5  81 NW25G32   30.06R WCI -12
WADENA         FLURRIES   7   1  78 NW22G28   29.99R WCI -14
GLENWOOD       CLOUDY    10   3  72 NW24G32   29.99S HAZE    WCI -10
APPLETON       SNOW      12   9  85 N36G44    30.08S VSB 1/2 WCI -11
BENSON         CLOUDY    12   3  67 N24G39    30.04R WCI  -8
ORTONVILLE     CLOUDY    12   7  79 N26G33    30.10R HAZE    WCI  -8
MADISON        SNOW      14  10  85 N30G43    30.10R VSB 1/4 WCI  -7
WILLMAR        PTSUNNY   12   5  73 NW25      30.01R WCI  -8
$$
MNZ033>034-036-042>043-049>051-058-059-081600-
   Central Minnesota

CITY           SKY/WX    TMP DP  RH WIND       PRES   REMARKS
ST CLOUD       LGT SNOW   9   3  77 NW16G24   29.95R WCI  -8
SAUK CENTRE    LGT SNOW   8   1  75 NW24G31   29.98R WCI -14
PAYNESVILLE    CLOUDY     9   3  78 NW21G30   29.98R HAZE    WCI -11
AITKIN         MIX PCPN   9  -2  61 NW8       29.92R WCI  -4
PINE RIVER     FLURRIES   7   0  72 NW16      29.99S WCI -11
BRAINERD       LGT SNOW   6   1  80 N15       29.95R VSB 1   WCI -12
STAPLES        PTSUNNY    5  -2  72 NW15G21   29.98R WCI -13
LONG PRAIRIE   CLOUDY     7   1  78 NW18G30   29.97S HAZE    WCI -12
LITTLE FALLS   LGT SNOW   9   1  72 NW12G21   29.97R WCI  -6
LITCHFIELD     LGT SNOW  10   7  85 NW25G31   29.97R WCI -10
BUFFALO        CLOUDY    11   3  70 NW13G26   29.96R WCI  -4
MAPLE LAKE     LGT SNOW  11   5  78 NW21      29.96R WCI  -8
$$
MNZ037-044-045-052-053-081600-
   East Central Minnesota

CITY           SKY/WX    TMP DP  RH WIND       PRES   REMARKS
PRINCETON      CLOUDY    10   3  72 NW13G18   29.93R WCI  -5
MORA           PTSUNNY   10   1  67 N21G26    29.93R WCI  -9
CAMBRIDGE      CLOUDY    10   1  67 NW15G23   29.91R WCI  -6
RUSH CITY      CLOUDY    10   2  70 NW8G24    29.91R WCI  -2
MOOSE LAKE     CLOUDY    10   1  67 NW13G20   29.87R WCI  -5
HINCKLEY       CLOUDY    10   3  72 NW15G24   29.89S WCI  -6
CLOQUET        LGT SNOW   7   1  78 NW17      29.84S WCI -12
MCGREGOR       MOSUNNY    9   1  72 NW17G24   29.91R WCI -10
$$
MNZ071>073-080-081-089-090-097-098-081600-
   Southwest Minnesota

CITY           SKY/WX    TMP DP  RH WIND       PRES   REMARKS
MONTEVIDEO     CLOUDY    12  10  92 N30G40    30.06S FOG     WCI  -9
GRANITE FALLS  LGT SNOW  14   9  81 NW32G39   30.07R VSB 1   WCI  -7
CANBY          LGT SNOW  18  13  83 N23G36    30.10R WCI   0
MARSHALL       HVY SNOW  12   9  87 N32G44    30.04R VSB 1/4 WCI -10
REDWOOD FALLS  LGT SNOW  12   7  80 NW16G31   30.02R WCI  -5
OLIVIA         CLOUDY    12   9  85 NW26G35   30.01R HAZE    WCI  -8
PIPESTONE      MOSUNNY   18   9  68 N26G41    30.03R WCI  -1
WINDOM         HVY SNOW  12   9  85 NW37G43   29.97R VSB<1/4 WCI -11
WORTHINGTON    CLOUDY   N/A N/A N/A NW35      30.00R VSB 1/2
JACKSON          N/A     14   9  79 NW32G47   29.95R WCI  -7
TRACY          LGT SNOW  14  10  85 N30G44    30.03R VSB 3/4 WCI  -7
SLAYTON          N/A     13  11  94 N31G41    30.01R WCI  -9
$$
MNZ065>067-074>077-082>085-091>093-081600-
   South Central Minnesota

CITY           SKY/WX    TMP DP  RH WIND       PRES   REMARKS
MANKATO        CLOUDY   N/A N/A N/A NW28      29.92R
NEW ULM        CLOUDY    10   7  85 NW24G33   29.95S FOG     WCI -10
ST JAMES       SNOW      12  10  92 NW28G38   29.98R VSB 1/4 WCI  -9
FAIRMONT       CLOUDY   N/A N/A N/A NW32      29.91R
GLENCOE        CLOUDY    12   7  82 NW15G23   29.95R HAZE    WCI  -4
FARIBAULT      CLOUDY    10   3  72 NW18G28   29.90R WCI  -8
OWATONNA       LGT SNOW  10   5  79 NW22G29   29.88R WCI  -9
WASECA         CLOUDY    12   7  79 NW26      29.91R HAZE    WCI  -8
ALBERT LEA     CLOUDY    10   7  85 NW20      29.87R FOG     WCI  -8
$$
MNZ078>079-086>088-094>096-081600-
   Southeast Minnesota

CITY           SKY/WX    TMP DP  RH WIND       PRES   REMARKS
ROCHESTER      LGT SNOW  11   7  84 NW29G35   29.80R FOG     WCI -11
RED WING       CLOUDY    14   3  62 NW12G24   29.87R WCI   0
STANTON        CLOUDY    13   6  73 NW17G25   29.88R HAZE    WCI  -4
DODGE CENTER   CLOUDY    10   5  79 NW21G29   29.83R HAZE    WCI  -9
WINONA         CLOUDY    18  10  73 NW18      29.83R WCI   2
AUSTIN         CLOUDY    10   7  85 NW18G26   29.84R FOG     WCI  -8
PRESTON        CLOUDY    13   7  77 N16       29.79R WCI  -4
$$
ABBREVIATIONS USED IN REMARKS
   TC - TEMPERATURES IN CELSIUS
  WCI - WIND CHILL INDEX
   HX - HEAT INDEX
  VSB - VISIBILITY
$$




USA.gov is the U.S. government's official web portal to all federal, state and local government web resources and services.